Back to catalog

XM-1

AliveCommunicationsGEO
NORAD 26761·PAYLOAD·🇺🇸 United States

Launched May 8, 2001 from Sea Launch Platform

Loading…

TLE

FreshSource: Space-Track

Epoch: Sep 14, 2026, 12:22 UTC

1 26761U 01018A   26257.51559532  .00000069  00000-0  00000-0 0  9994
2 26761   9.0541  60.7261 0001642  18.5969 159.0931  0.99002551 47006

Track XM-1 in real time with AllMySat

Download on the App Store